Voltar ao catálogo

CZ-6A DEB

AtivoSSO
NORAD 54974·DEBRIS·🇨🇳 China

Lançado Nov 11, 2022 de Taiyuan Satellite Launch Center

Loading…

Próximas Passagens (próximas 24 horas)

TLE

AtualizadoSource: Space-Track

Época: Sep 14, 2026, 14:33 UTC

1 54974U 22151TP  26257.60631280  .00003937  00000-0  82497-3 0  9993
2 54974  98.6208 314.7020 0088567  46.4451 314.4058 14.57878125201982

Acompanhe CZ-6A DEB em tempo real com AllMySat

Download on the App Store